Regional Weather Roundup
Issued by NWS Huntsville, AL

Home | Current Version | Previous Version | Text Only | Print | Product List | Glossary On
Versions: 1 2 3 4 5 6 7 8 9 10 11 12 13 14 15 16 17 18 19 20 21 22 23 24 25 26 27
000
ASUS44 KHUN 041910
RWRHUN

WEATHER ROUNDUP FOR THE TENNESSEE VALLEY
NATIONAL WEATHER SERVICE HUNTSVILLE AL
100 PM CST SUN DEC 04 2016

ALZ001>004-042000-
NORTHWEST ALABAMA

CITY           SKY/WX    TMP DP  RH WIND       PRES   REMARKS
COURTLAND HCN    N/A     48 N/A N/A SE3         N/A
RUSSELLVILLE     N/A     48 N/A N/A MISG        N/A
SHOALS AIRPORT CLOUDY    49  46  90 SE8       29.93F
SHOALS TVA RES   N/A     48 N/A N/A MISG        N/A
$$

ALZ005>007-016-042000-
NORTH CENTRAL ALABAMA

CITY           SKY/WX    TMP DP  RH WIND       PRES   REMARKS
CULLMAN AG STN   N/A     46 N/A N/A SE6         N/A
DECATUR AP     LGT RAIN  47  47 100 SE7       29.95F FOG
HUNTSVILLE AP  HVY RAIN  49  46  90 SE5       29.96S FOG
MERIDIANVILLE  LGT RAIN  45  43  93 SE8       29.95S
REDSTONE ARSN  LGT RAIN  46  45  93 S3        29.95S VSB 7/8
VINEMONT AP    CLOUDY    46  45  97 SE10G17   29.93F FOG
$$

ALZ008>010-042000-
NORTHEAST ALABAMA

CITY           SKY/WX    TMP DP  RH WIND       PRES   REMARKS
ALBERTVILLE    CLOUDY    45  45 100 SE9G17    29.94F FOG
FORT PAYNE     RAIN      45  41  87 NE3       29.98F
SCOTTSBORO AP  CLOUDY    46  45  93 CALM      29.98F
SCOTTSBORO HCN   N/A     46 N/A N/A MISG        N/A
VALLEY HEAD      N/A     45 N/A N/A MISG        N/A
$$

TNZ076-096-097-042000-
SOUTHEASTERN MIDDLE TENNESSEE

CITY           SKY/WX    TMP DP  RH WIND       PRES   REMARKS
TULLAHOMA      CLOUDY    45  45 100 S12       29.93F
WINCHESTER     CLOUDY    45  43  93 SE15      29.93F
$$

...SURROUNDING SITES...

CITY           SKY/WX    TMP DP  RH WIND       PRES   REMARKS
ATLANTA        LGT RAIN  45  45 100 E14G22    30.07F FOG
ANNISTON       CLOUDY    48  46  93 E9        30.01F
BIRMINGHAM     CLOUDY    51  50  96 VRB5      29.96F
CHATTANOOGA    CLOUDY    46  43  89 S6        30.03F FOG
CORINTH        CLOUDY    48  46  93 SW3       29.93S
DALTON         CLOUDY    45  45 100 S5        30.03F
GADSDEN        LGT RAIN  47  46  97 E7        29.99F FOG
GOLDEN TRNGL   CLOUDY    50  46  87 CALM      29.88F FOG
HALEYVILLE     LGT RAIN  48  47  96 SE6       29.94F
JACKSON TN     CLOUDY    48  48 100 SW6       29.95F FOG
MEMPHIS        DRZL/FOG  46  46 100 NW7       29.96F VSB 1
NASHVILLE      CLOUDY    48  44  86 S9        29.93F
OXFORD MS      CLOUDY    46  45  93 W3        29.97S
ROME           LGT RAIN  46  43  89 SE6       30.03F
SAVANNAH       CLOUDY    48  46  93 S6        29.92S
TUPELO         CLOUDY    50  47  89 S6        29.93F
TUSCALOOSA     CLOUDY    54  53  97 E3        29.93F FOG
$$

...GULF COAST WEATHER...

CITY           SKY/WX    TMP DP  RH WIND       PRES   REMARKS
GULFPORT       LGT RAIN  74  71  91 W6        29.86F FOG
PASCAGOULA     PTSUNNY   73  70  90 S3        29.87F
MOBILE         HVY RAIN  70  70 100 S6        29.89F FOG
GULF SHORES    TSTM      73  73 100 SW8G24    29.88F
PENSACOLA      TSTM      73  70  90 SW8       29.88F
DESTIN         CLOUDY    75  71  87 SE15      29.90F
PANAMA CITY    CLOUDY    75  68  78 S18       29.94F
APPALACHICOLA  CLOUDY    74  68  81 SE10      29.98F
$$





USA.gov is the U.S. government's official web portal to all federal, state and local government web resources and services.